Lacon, IL

2:11 AM CST on December 16, 2019 (GMT -0600)
Lacon

Weather History for KC75 - October, 2019

Change the Weather History Date:

Tuesday, October 8, 2019

  Actual Average (WUND) Record (WUND)
Temperature  
Mean Temperature 56 °F -  
Max Temperature 71 °F - - (-1)
Min Temperature 41 °F - - (-1)
Degree Days  
Heating Degree Days 9    
Growing Degree Days 6 (Base 50)    
Moisture  
Dew Point 44 °F    
Average Humidity 70    
Maximum Humidity 99    
Minimum Humidity 33    
Precipitation  
Precipitation 0.00 in - - ()
Sea Level Pressure  
Sea Level Pressure 30.17 in    
Wind  
Wind Speed 1 mph (SSW)    
Max Wind Speed 12 mph    
Max Gust Speed -    
Visibility 9 miles    
Events      
Averages and records for this station are not official NWS values.
T = Trace of Precipitation, MM = Missing Value Source: NWS Daily Summary

Daily Weather History Graph

Daily Weather History Graph

Search for Another Location

Airport or City:

Astronomy

Oct. 08, 2019 Rise Set
Actual Time 7:01 AM CDT 6:28 PM CDT
Civil Twilight 6:33 AM CDT 6:55 PM CDT
Nautical Twilight 6:01 AM CDT 7:27 PM CDT
Astronomical Twilight 5:29 AM CDT 7:59 PM CDT
Moon 4:29 PM CDT (10/8) 1:47 AM CDT (10/8)
Length of Visible Light 12h 22m
Length of Day
11h 27m
Waxing Gibbous, 78% of the Moon is Illuminated
Oct 8
Waxing Gibbous
Oct 13
Full
Oct 21
Last Quarter
Oct 27
New
Nov 4
First Quarter

Hourly Weather History & Observations

Time (CDT) Temp. Dew Point Humidity Pressure Visibility Wind Dir Wind Speed Gust Speed Precip Events Conditions
12:15 AM 45.1 °F 43.9 °F 95% 30.21 in 10.0 mi Calm Calm - N/A   Clear
12:35 AM 44.6 °F 43.7 °F 97% 30.21 in 10.0 mi Calm Calm - N/A   Clear
12:55 AM 44.6 °F 43.7 °F 97% 30.20 in 10.0 mi Calm Calm - N/A   Clear
1:15 AM 44.6 °F 43.3 °F 95% 30.20 in 10.0 mi Calm Calm - N/A   Clear
1:35 AM 43.9 °F 43.0 °F 97% 30.21 in 10.0 mi Calm Calm - N/A   Clear
1:55 AM 44.1 °F 43.0 °F 96% 30.20 in 10.0 mi Calm Calm - N/A   Clear
2:15 AM 44.1 °F 43.0 °F 96% 30.20 in 10.0 mi Calm Calm - N/A   Clear
2:35 AM 43.3 °F 42.3 °F 96% 30.20 in 10.0 mi Calm Calm - N/A   Clear
2:55 AM 43.5 °F 42.4 °F 96% 30.20 in 10.0 mi Calm Calm - N/A   Clear
3:15 AM 43.0 °F 42.1 °F 97% 30.20 in 10.0 mi Calm Calm - N/A   Scattered Clouds
3:35 AM 43.5 °F 42.8 °F 97% 30.21 in 10.0 mi Calm Calm - N/A   Clear
3:55 AM 42.8 °F 42.1 °F 97% 30.20 in 10.0 mi Calm Calm - N/A   Clear
4:15 AM 43.2 °F 42.3 °F 97% 30.21 in 10.0 mi Calm Calm - N/A   Clear
4:35 AM 42.4 °F 41.5 °F 97% 30.21 in 10.0 mi Calm Calm - N/A   Clear
4:55 AM 42.6 °F 42.1 °F 98% 30.21 in 10.0 mi Calm Calm - N/A   Clear
5:15 AM 42.6 °F 42.1 °F 98% 30.21 in 10.0 mi Calm Calm - N/A   Clear
5:35 AM 42.6 °F 42.1 °F 98% 30.21 in 10.0 mi Calm Calm - N/A   Clear
5:55 AM 42.1 °F 41.7 °F 99% 30.21 in 10.0 mi Calm Calm - N/A   Clear
6:15 AM 41.5 °F 41.0 °F 98% 30.21 in 10.0 mi Calm Calm - N/A   Clear
6:35 AM 41.5 °F 41.0 °F 98% 30.21 in 10.0 mi Calm Calm - N/A   Clear
6:55 AM 41.7 °F 41.0 °F 97% 30.21 in 10.0 mi Calm Calm - N/A   Clear
7:15 AM 41.4 °F 41.0 °F 99% 30.22 in 10.0 mi Calm Calm - N/A   Clear
7:35 AM 42.1 °F 41.7 °F 99% 30.23 in 10.0 mi Calm Calm - N/A   Clear
7:55 AM 44.1 °F 43.3 °F 97% 30.23 in 10.0 mi Calm Calm - N/A   Clear
8:15 AM 47.1 °F 45.0 °F 92% 30.23 in 10.0 mi Calm Calm - N/A   Clear
8:35 AM 50.4 °F 45.1 °F 82% 30.23 in 10.0 mi Calm Calm - N/A   Clear
8:55 AM 52.5 °F 45.9 °F 78% 30.23 in 10.0 mi Calm Calm - N/A   Clear
9:15 AM 54.1 °F 46.2 °F 75% 30.23 in 10.0 mi Calm Calm - N/A   Clear
9:35 AM 56.3 °F 46.9 °F 71% 30.23 in 10.0 mi Calm Calm - N/A   Clear
9:55 AM 58.3 °F 48.4 °F 70% 30.23 in 10.0 mi Calm Calm - N/A   Clear
10:15 AM 61.3 °F 48.6 °F 63% 30.23 in 10.0 mi Calm Calm - N/A   Clear
10:35 AM 62.8 °F 48.9 °F 61% 30.23 in 10.0 mi Calm Calm - N/A   Clear
10:55 AM 65.1 °F 47.1 °F 52% 30.23 in 10.0 mi Calm Calm - N/A   Clear
11:15 AM 65.7 °F 48.4 °F 54% 30.22 in 10.0 mi Calm Calm - N/A   Clear
11:35 AM 67.5 °F 48.9 °F 51% 30.22 in 10.0 mi SSE 3.5 mph - N/A   Clear
11:55 AM 68.7 °F 48.4 °F 48% 30.21 in 10.0 mi SW 4.6 mph - N/A   Clear
12:15 PM 68.7 °F 47.7 °F 47% 30.20 in 10.0 mi WSW 5.8 mph - N/A   Clear
12:35 PM 68.9 °F 45.5 °F 43% 30.20 in 10.0 mi SW 5.8 mph - N/A   Clear
12:55 PM 69.8 °F 45.0 °F 41% 30.19 in 10.0 mi SW 3.5 mph - N/A   Clear
1:15 PM 70.3 °F 41.5 °F 35% 30.18 in 10.0 mi WSW 8.1 mph - N/A   Clear
1:35 PM 69.8 °F 39.4 °F 33% 30.17 in 10.0 mi SW 11.5 mph - N/A   Clear
1:55 PM 70.2 °F 39.6 °F 33% 30.16 in 10.0 mi WSW 6.9 mph - N/A   Clear
2:15 PM 70.7 °F 39.9 °F 33% 30.15 in 10.0 mi West 6.9 mph - N/A   Clear
2:55 PM 70.7 °F 41.2 °F 34% 30.14 in 10.0 mi SSW 5.8 mph - N/A   Clear
3:15 PM 70.7 °F 41.9 °F 35% 30.14 in 10.0 mi SW 3.5 mph - N/A   Clear
3:35 PM 70.9 °F 41.7 °F 35% 30.13 in 10.0 mi WSW 5.8 mph - N/A   Clear
3:55 PM 71.1 °F 40.8 °F 33% 30.12 in 10.0 mi WSW 3.5 mph - N/A   Clear
4:15 PM 70.9 °F 41.4 °F 34% 30.12 in 2.0 mi Calm Calm - N/A   Haze
4:35 PM 70.9 °F 41.4 °F 34% 30.12 in 10.0 mi SSW 4.6 mph - N/A   Clear
4:55 PM 70.3 °F 42.3 °F 36% 30.11 in 1.8 mi SSW 4.6 mph - N/A   Haze
5:15 PM 69.8 °F 43.0 °F 38% 30.11 in 7.0 mi South 3.5 mph - N/A   Clear
5:35 PM 68.7 °F 42.8 °F 39% 30.11 in 10.0 mi South 3.5 mph - N/A   Clear
5:55 PM 68.0 °F 47.3 °F 47% 30.10 in 10.0 mi Calm Calm - N/A   Clear
6:15 PM 63.0 °F 49.6 °F 62% 30.10 in 10.0 mi Calm Calm - N/A   Clear
6:35 PM 58.1 °F 49.5 °F 73% 30.10 in 10.0 mi ESE 3.5 mph - N/A   Clear
6:55 PM 57.2 °F 48.2 °F 72% 30.10 in 10.0 mi Calm Calm - N/A   Clear
7:15 PM 57.4 °F 46.8 °F 68% 30.11 in 10.0 mi Calm Calm - N/A   Clear
7:35 PM 58.5 °F 45.0 °F 61% 30.11 in 10.0 mi ESE 4.6 mph - N/A   Clear
7:55 PM 59.0 °F 43.9 °F 57% 30.11 in 1.0 mi ESE 3.5 mph - N/A   Haze
8:15 PM 56.7 °F 44.2 °F 63% 30.11 in 1.8 mi Calm Calm - N/A   Haze
8:35 PM 58.6 °F 43.5 °F 57% 30.11 in 3.0 mi Calm Calm - N/A   Haze
8:55 PM 56.1 °F 43.5 °F 63% 30.11 in 2.0 mi SE 3.5 mph - N/A   Haze
9:15 PM 54.1 °F 43.7 °F 68% 30.11 in 2.5 mi Calm Calm - N/A   Haze
9:35 PM 51.3 °F 44.8 °F 78% 30.11 in 10.0 mi Calm Calm - N/A   Clear
9:55 PM 50.9 °F 44.1 °F 77% 30.11 in 10.0 mi Calm Calm - N/A   Clear
10:15 PM 50.7 °F 44.1 °F 78% 30.11 in 10.0 mi SSE 3.5 mph - N/A   Clear
10:35 PM 55.9 °F 42.8 °F 61% 30.11 in 10.0 mi SE 5.8 mph - N/A   Clear
10:55 PM 56.1 °F 42.1 °F 59% 30.11 in 10.0 mi SE 5.8 mph - N/A   Clear
11:15 PM 50.7 °F 43.0 °F 75% 30.11 in 10.0 mi South 3.5 mph - N/A   Clear
11:35 PM 49.8 °F 43.5 °F 79% 30.11 in 10.0 mi Calm Calm - N/A   Clear
11:55 PM 50.9 °F 42.3 °F 72% 30.11 in 10.0 mi Calm Calm - N/A   Clear